Location: Unspecified
(29.9680°N, 0.0000°E)
Time: 06:38:13
(UTC+00:00)

Vanguard 3 - Visible Passes

Search period start: 19 October 2019 00:00
Search period end: 29 October 2019 00:00
Orbit: 508 x 3262 km, 33.3° (Epoch: 18 October)

Date Brightness Start Highest point End Pass type
(mag) Time Alt. Az. Time Alt. Az. Time Alt. Az.
19 Oct 7.2 04:01:52 74° W 04:02:27 84° SSW 04:11:17 10° ESE visible
20 Oct 9.4 02:52:18 23° E 02:52:18 23° E 02:55:07 10° E visible
20 Oct 8.2 04:56:52 22° W 05:00:39 50° SSW 05:10:21 10° SE visible
21 Oct 7.5 03:47:18 63° SSE 03:47:18 63° SSE 03:54:24 10° ESE visible
22 Oct 9.9 02:37:46 14° E 02:37:46 14° E 02:38:40 10° E visible
22 Oct 8.2 04:42:22 29° WSW 04:44:42 39° SSW 04:52:57 10° SE visible
23 Oct 8.4 03:32:49 37° SE 03:32:49 37° SE 03:37:33 10° ESE visible
23 Oct 9.3 05:38:27 10° WSW 05:43:12 21° SSW 05:49:59 10° SSE visible
23 Oct 9.4 19:36:30 10° SSW 19:40:09 18° S 19:40:09 18° S visible
24 Oct 8.3 04:27:54 28° SW 04:28:47 30° SSW 04:35:32 10° SE visible
24 Oct 9.6 18:23:13 10° S 18:27:26 14° SSE 18:30:38 10° SE visible
24 Oct 9.9 20:33:37 10° SW 20:35:14 16° SW 20:35:14 16° SW visible
25 Oct 9.3 03:18:24 20° SE 03:18:24 20° SE 03:20:45 10° SE visible
25 Oct 9.4 05:24:02 10° SW 05:27:17 14° SSW 05:31:23 10° S visible
25 Oct 8.8 19:18:43 10° SSW 19:25:42 28° SSE 19:25:42 28° SSE visible
26 Oct 8.8 04:13:29 21° SSW 04:13:29 21° SSW 04:18:01 10° SSE visible
26 Oct 9.4 18:04:15 10° SSW 18:11:28 20° SSE 18:16:10 11° ESE visible
26 Oct 9.2 20:16:35 10° SW 20:20:46 27° SW 20:20:46 27° SW visible
27 Oct 8.4 19:01:02 10° SW 19:10:08 37° SSE 19:11:12 35° SE visible
27 Oct 10.3 21:15:32 10° WSW 21:15:47 11° WSW 21:15:47 11° WSW visible
28 Oct 9.5 03:59:06 12° S 03:59:06 12° S 04:00:11 10° S visible
28 Oct 9.5 17:45:47 10° SSW 17:55:25 27° SSE 18:01:36 10° E visible
28 Oct 8.6 19:59:32 10° WSW 20:06:11 44° SW 20:06:11 44° SW visible
